Weather History for Fryeburg, ME

Change the Weather History Date:

Wednesday, November 21, 2012

  Actual Average Record
Temperature  
Mean Temperature 36 °F -  
Max Temperature 48 °F 41 °F 57 °F (1999)
Min Temperature 24 °F 23 °F 6 °F (2008)
Degree Days  
Heating Degree Days 29    
Moisture  
Dew Point 26 °F    
Average Humidity 82    
Maximum Humidity 100    
Minimum Humidity 54    
Precipitation  
Precipitation 0.00 in - - ()
Sea Level Pressure  
Sea Level Pressure 30.27 in    
Wind  
Wind Speed 0 mph (WNW)    
Max Wind Speed 4 mph    
Max Gust Speed -    
Visibility 7 miles    
Events Fog , Rain    
Averages and records for this station are not official NWS values.
T = Trace of Precipitation, MM = Missing Value Source: NWS Daily Summary

Daily Weather History Graph

Daily Weather History Graph

Search for Another Location

Airport:

Trip Planner

Search our weather history database for the weather conditions in past years. The results will help you decide how hot, cold, wet, or windy it might be!

Date:

Astronomy

Nov. 21, 2012 Rise Set
Actual Time 6:47 AM EST 4:12 PM EST
Civil Twilight 6:15 AM EST 4:43 PM EST
Nautical Twilight 5:39 AM EST 5:19 PM EST
Astronomical Twilight 5:05 AM EST 5:53 PM EST
Moon 12:38 PM EST (11/21) No Moon Set
Length of Visible Light 10h 28m
Length of Day
9h 25m
First Quarter, 61% of the Moon is Illuminated
Nov 21
First Quarter
Nov 28
Full
Dec 6
Last Quarter
Dec 13
New
Dec 20
First Quarter

Hourly Weather History & Observations

Time (EST) Temp. Windchill Dew Point Humidity Pressure Visibility Wind Dir Wind Speed Gust Speed Precip Events Conditions
12:54 AM 28.9 °F - 24.1 °F 82% 30.21 in 10.0 mi Calm Calm - N/A   Partly Cloudy
1:54 AM 30.0 °F - 25.0 °F 82% 30.22 in 10.0 mi Calm Calm - N/A   Scattered Clouds
2:54 AM 30.0 °F 26.5 °F 25.0 °F 82% 30.22 in 10.0 mi WNW 3.5 mph - N/A   Partly Cloudy
3:54 AM 28.9 °F - 25.0 °F 85% 30.23 in 10.0 mi Calm Calm - N/A   Clear
4:54 AM 30.0 °F - 26.1 °F 85% 30.23 in 10.0 mi Calm Calm - N/A   Clear
5:54 AM 28.9 °F - 25.0 °F 85% 30.25 in 10.0 mi Calm Calm - N/A   Partly Cloudy
6:54 AM 27.0 °F - 24.1 °F 89% 30.27 in 10.0 mi Calm Calm - N/A   Clear
7:54 AM 30.9 °F 27.5 °F 27.0 °F 85% 30.29 in 10.0 mi WNW 3.5 mph - N/A   Mostly Cloudy
8:54 AM 35.1 °F - 26.1 °F 70% 30.30 in 10.0 mi Calm Calm - 0.00 in   Mostly Cloudy
9:54 AM 39.9 °F - 27.0 °F 60% 30.30 in 10.0 mi Calm Calm - N/A   Clear
10:37 AM 42.8 °F - 28.4 °F 57% 30.27 in 10.0 mi Calm Calm - 0.00 in Rain Light Rain
10:45 AM 42.8 °F - 28.4 °F 57% 30.27 in 10.0 mi Calm Calm - 0.00 in Rain Light Rain
10:54 AM 43.0 °F - 28.9 °F 58% 30.28 in 10.0 mi Calm Calm - 0.00 in   Partly Cloudy
11:54 AM 44.1 °F - 30.9 °F 60% 30.26 in 10.0 mi Calm Calm - N/A   Scattered Clouds
12:54 PM 46.0 °F - 33.1 °F 61% 30.25 in 10.0 mi Calm Calm - 0.00 in   Clear
1:54 PM 48.9 °F - 33.1 °F 54% 30.25 in 10.0 mi Calm Calm - N/A   Clear
2:54 PM 48.0 °F - 33.1 °F 56% 30.25 in 10.0 mi Calm Calm - N/A   Clear
3:54 PM 41.0 °F - 32.0 °F 70% 30.25 in 10.0 mi Calm Calm - 0.00 in   Clear
4:54 PM 34.0 °F - 30.0 °F 85% 30.27 in 10.0 mi Calm Calm - N/A   Clear
5:54 PM 28.9 °F - 27.0 °F 92% 30.28 in 10.0 mi Calm Calm - N/A   Clear
6:54 PM 28.0 °F - 26.1 °F 92% 30.29 in 10.0 mi Calm Calm - 0.00 in   Clear
7:54 PM 27.0 °F - 25.0 °F 92% 30.30 in 8.0 mi Calm Calm - N/A   Clear
8:54 PM 26.1 °F - 24.1 °F 92% 30.30 in 9.0 mi Calm Calm - N/A   Clear
9:34 PM 24.8 °F 20.5 °F 23.0 °F 93% 30.28 in 1.5 mi NW 3.5 mph - N/A   Partly Cloudy
9:36 PM 24.8 °F - 23.0 °F 93% 30.28 in 0.8 mi Calm Calm - N/A   Mist
9:47 PM 24.8 °F - 23.0 °F 93% 30.27 in 1.0 mi Calm Calm - N/A   Mist
9:50 PM 24.8 °F - 23.0 °F 93% 30.27 in 1.5 mi Calm Calm - N/A   Scattered Clouds
9:54 PM 25.0 °F - 23.0 °F 92% 30.29 in 2.5 mi Calm Calm - N/A   Scattered Clouds
10:01 PM 24.8 °F - 24.8 °F 100% 30.27 in 6.0 mi Calm Calm - N/A   Scattered Clouds
10:17 PM 24.8 °F - 23.0 °F 93% 30.27 in 6.0 mi Calm Calm - N/A   Mostly Cloudy
10:39 PM 24.8 °F - 24.8 °F 100% 30.27 in 1.8 mi Calm Calm - N/A   Overcast
10:44 PM 24.8 °F - 24.8 °F 100% 30.27 in 0.8 mi Calm Calm - N/A   Mist
10:54 PM 25.0 °F - 24.1 °F 96% 30.29 in 0.2 mi Calm Calm - N/A Fog Light Freezing Fog
11:54 PM 24.1 °F - 21.9 °F 91% 30.29 in 0.2 mi Calm Calm - 0.00 in Fog Light Freezing Fog